Baseball 板


LINE

義大犀牛 高國輝 林旺衛 張建銘 中信兄弟象 裁判 1 胡金龍 \  周思齊 陳子豪 張正偉 / 1 張正偉 主 張展榮 2 張建銘 \     陳凱倫 藍少白   /  2 王勝偉 一 江春緯 3 高國輝 王勝偉 潘萣翔 /   3 張志豪 二 吳家維 4 林益全  陽冠威 林益全   4 周思齊 三 紀華文 5 鄭達鴻 黃仕豪 蘇緯達  5 陳子豪陽冠威     \ 希克 /      6 蘇緯達林旺衛 DH \ 克蘭頓 /  DH    7 潘萣翔陳凱倫 胡金龍 \   / 張志豪   8 黃仕豪藍少白          \ /         9 周聖訓 鄭達鴻 主播台 緯來體育台&精采台 周聖訓 緯來 楊正磊 鄭幸生 ELTA育樂 三頻道直播 ELTA 陳捷盛 鄭景益 --



※ 發信站: 批踢踢實業坊(ptt.cc), 來自: 36.229.123.21
※ 文章網址: https://webptt.com/m.aspx?n=bbs/Baseball/M.1444298820.A.E0B.html
1F:→ cissant: 只有兄弟在練兵 給推 10/08 18:07
2F:推 RedHotTiger: 爪爪練兵囉 不動四棒終於下去了 10/08 18:07
3F:推 ysku: 王勝偉是超人嗎 10/08 18:07
4F:→ dunhiller: 反觀 10/08 18:07
5F:推 jay1943webbe: 蘇偉在哪裡! 10/08 18:08
6F:推 cissant: 補推 10/08 18:08
7F:推 ils0104: 這練兵練得不夠徹底啊XD 10/08 18:08
8F:推 suzy0717: 王拔補出賽數吧 10/08 18:08
9F:→ ultratimes: 兄弟有機會創下封王後連敗到最後一場比賽的紀錄嗎? 10/08 18:08
10F:→ ils0104: 王勝偉還要拼金手套吧~場次還不夠 10/08 18:08
11F:→ suzy0717: 某u又來秀下限 XD 10/08 18:09
12F:推 encorej77107: 只有恰恰沒上啊 其他該上的都有上 10/08 18:09
13F:→ hicker: 反正有總冠軍賽可以打就好 封王後連敗其實也不在乎 10/08 18:09
14F:→ jimmy8343: 練兵的概念 10/08 18:09
15F:→ hicker: 看看海另一端的軟銀 封王後戰績也是不好看.... 10/08 18:10
16F:推 ysku: 輕鬆打 越會贏 10/08 18:10
17F:推 MAX777: 消化比賽連敗會算入明年戰績嗎? 10/08 18:10
18F:→ hicker: 算今年呀 10/08 18:10
19F:→ jimmy8343: 我建議張志豪王勝偉周思齊張正偉也可以下去休息 10/08 18:10
20F:推 ALspeed: 會算入跨年度連敗... 10/08 18:11
21F:→ ysku: 有些球員需要出賽維持手感 10/08 18:11
22F:推 ChargeI: 見證歷史,40轟 10/08 18:11
23F:→ campdkny: 王拔和紅龜的出賽數都還不夠吧... 10/08 18:13
24F:→ if2: 也沒有練很大啊 10/08 18:13
25F:推 pw080325043: 林王呢 10/08 18:13
26F:推 ORK: 肥恰終於去板凳了~給推 10/08 18:13
27F:推 cityhunter04: 正常練兵!周跟張應該是要調整手感……… 10/08 18:14
28F:推 s83106: 志豪傷剛好上來練練手感 王拔是補出賽場數拚金手套 10/08 18:14
29F:噓 hy654: 兄弟開始練兵了 就不要連1.5軍等級的兄弟都打不贏 10/08 18:15
30F:推 dsauqt: 感謝某u讓我象封王 10/08 18:16
31F:→ s83106: 周董也是練手感 昨天之前狀況不太好 10/08 18:16
32F:推 hsienlee: 國輝轟! 10/08 18:16
33F:→ purin820611: 記得有年兄弟下半季封王之後消化比賽全敗XD 10/08 18:20
34F:→ ePaper: 合體:希克蘭頓 10/08 18:21
35F:推 linisthebest: 才讓一半 失敗 10/08 18:22
36F:推 MAX777: 怎麼不讓鯰魚弟蹲 10/08 18:23
37F:推 ils0104: 練周正常啊~+G有傷~周可能會當2號捕手 10/08 18:26
38F:推 hsi0516: 國華有在一軍嗎 投給哥哥打吧~ 10/08 18:26
39F:推 SuperSg: 消化適合 10/08 18:28
40F:推 waijr: 周聖訓完程度比較高 10/08 18:29
41F:推 xu3jo6su6: we 阿勒~ we we 阿勒~ 10/08 18:31
42F:推 mix5172000: EXID 的歌 10/08 18:31
43F:→ luaniu: 正花最正啦 10/08 18:31
44F:推 meta41110: 蘇偉蘇偉...蘇偉...蘇偉.. 10/08 18:32
45F:→ xu3jo6su6: 率智留下 其他自己分 10/08 18:32
46F:→ luaniu: 怎麼沒表演Ah yeah 10/08 18:32
47F:推 trylin: HANI我就不客氣了 10/08 18:32
48F:推 mix5172000: 我要HANi 10/08 18:33
49F:推 pomelo0608: 這場重點就看國輝了 10/08 18:33
50F:→ WongTakashi: VL-S 楊正磊 鄭幸生 10/08 18:33
※ 編輯: hicker (36.229.123.21), 10/08/2015 18:34:55
51F:推 encorej77107: 正花最正 10/08 18:33
52F:推 Kouzuki: u大師真的不簡單 怎樣都可以酸 10/08 18:33
53F:→ Kouzuki: ELTA 陳捷盛 鄭景益 10/08 18:34
54F:推 ttnakafzcm: 張江吳紀 10/08 18:34
55F:→ Kouzuki: 張展榮 江春緯 吳家維 紀華文 10/08 18:34
※ 編輯: hicker (36.229.123.21), 10/08/2015 18:35:23
56F:推 Rex3661: 我輝40轟預備~~ 10/08 18:35
57F:推 WasHenryTsen: 鱒魚弟打DH喔 10/08 18:36
58F:推 Dawei1165: 先神串留名你輝40轟 10/08 18:37
59F:推 howard9966: 推40 ! 10/08 18:37
60F:→ campdkny: 大頭.....你再混嘛 10/08 18:38
61F:推 kroya: 既然要練兵~就讓國輝轟吧~ 上看50轟 10/08 18:38
62F:推 honway: 40來了 10/08 18:38
63F:推 Petrovic: 黃不EY 10/08 18:38
64F:推 batsakura: 大頭還是爛泥扶不上牆 10/08 18:39
65F:→ WongTakashi: 國輝你..................... 10/08 18:40
66F:推 forgetta: 當年馬怪爾消化比賽打第一棒 高國輝不試試看嗎? 10/08 18:40
67F:→ forgetta: 有機會多打一次 10/08 18:40
68F:推 hhpsjoe: 導播還在狀況外.. 10/08 18:40
69F:噓 jocabyu: 民視拍的真爛,被觸殺出局還拍不到... 10/08 18:40
70F:→ f59952: 導播 !!!!! 10/08 18:40
71F:推 joey89116: 87國徽 10/08 18:40
72F:→ campdkny: 國輝怎麼會跑咧 @@" 10/08 18:40
73F:推 jj1004: 高國輝不開心了 看來要炸了 10/08 18:40
74F:推 encorej77107: 居然沒傳3壘 蠻少見的 10/08 18:40
75F:推 Petrovic: 民視也在練兵 呵呵 10/08 18:41
76F:→ spy9527: 再忍一個月吧 10/08 18:41
77F:推 panjanhon: 傳三壘應該抓不到 傳二壘距離比較短一點 10/08 18:41
78F:推 egg43: 沒傳3壘很正常 臂力不足不如傳2壘 10/08 18:41
79F:→ f59952: 什麼背力不足 那麼遠 國輝亂跑當然往那傳 10/08 18:42
80F:推 edouard09: 連敗有差嗎?都封王了怎樣輸只有某U會高潮吧 10/08 18:45
81F:推 sg8888sgsg: HHHHHHHHHHHHHHHHHHHHHH 10/08 18:45
82F:→ luaniu: gone 10/08 18:45
83F:→ sg8888sgsg: HR 10/08 18:46
84F:推 qqqqer: 炸 10/08 18:46
85F:推 WongTakashi: HRRRRRRRRRRRRRRRRRRRRRRRRRRRRRRRRRRRR 10/08 18:46
86F:推 f59952: 鯰魚弟是林明杰 10/08 18:46
87F:推 dsauqt: 練兵還贏球 10/08 18:46
88F:噓 allenlittle: 義大還是拼墊底好了 10/08 18:46
89F:→ sg8888sgsg: 台版YOH 10/08 18:46
90F:→ qqqqer: 9球3分… 10/08 18:46
91F:→ samggyy: 義大墊不了底了 10/08 18:46
92F:→ jimmy8343: 今天是希克投喔... 10/08 18:47
93F:推 encorej77107: 達鴻太大意了 10/08 18:47
94F:→ sorrycar: 被醉爪打爆 10/08 18:47
95F:推 chen06: 咦?今天不是要練兵 XD 10/08 18:47
96F:→ sg8888sgsg: 連三安 感覺有點抖 10/08 18:47
97F:→ jimmy8343: 請別擔心 現在還沒到練兵棒次 被打也不用太難過 10/08 18:48
98F:→ yyc1217: 明年希克還會續約嗎... 10/08 18:52
99F:推 qqqqer: 151 10/08 18:52
100F:→ BaRanKa: 這隻蘇 也還蠻厚實的身材 10/08 18:52
101F:推 a1len: http://i.imgur.com/710wnTc.png 10/08 18:53
102F:→ spy9527: 耍什麼 10/08 18:53
103F:推 iclaire: 這啥XDDDDDDDDDD 10/08 18:53
104F:→ qqqqer: 哈哈哈 10/08 18:53
105F:→ thnlkj0665: ...... 10/08 18:53
106F:推 hhpsjoe: XD 偷秀 10/08 18:53
107F:推 Petrovic: ... 10/08 18:53
108F:→ BaRanKa: 哈林野球 10/08 18:53
109F:推 dsauqt: 樓上我笑了 10/08 18:54
110F:推 chivalry1987: 耍寶喔 10/08 18:54
111F:推 taisam23: 蘇高中畢業原本國外球隊要簽 結果他沒簽 10/08 18:54
112F:推 egg43: 停下來直接傳也比轉傳快...... 10/08 18:54
113F:→ BaRanKa: 哇塞 第一局就33顆 10/08 18:54
114F:噓 ORK: 這球不能自己賺身傳球嗎? 10/08 18:54
115F:推 chen06: 原來練兵的義大?剛練了守備 XD 10/08 18:54
116F:推 liu724588: 刷猴戲嗎 10/08 18:54
117F:推 smallallen03: XDDDD 10/08 18:54
118F:推 chawer: 搞笑 10/08 18:54
119F:→ yyc1217: 是角度很難轉過來嗎?? 10/08 18:55
120F:→ ORK: 兄弟的啦啦隊~~~看起來~~~~嗯......不予置評 10/08 18:55
121F:→ spy9527: 希克很不爽 10/08 18:55
122F:推 xu3jo6su6: 畫虎不成反類犬之傳球 10/08 18:55
123F:噓 wusky1982: 夠低能 爛球技 耍什麼啊 10/08 18:55
124F:推 motonpom: 未看先猜高國輝今晚40轟 10/08 18:55
125F:推 JYHuang: 我有感覺到希克的無奈... 10/08 18:56
126F:噓 SungHyun: 哈哈 練兵午午都還壓不住!!!!!!!!!!!!!! 10/08 18:56
127F:→ wusky1982: 希克都想笑惹 10/08 18:56
128F:推 joey89116: 挖 不敢信欸竟然出局 10/08 18:56
129F:→ ORK: 希克:要耍猴戲~請去LM 10/08 18:56
130F:→ xu3jo6su6: 用球數差不多是自己球衣背號... 10/08 18:56
131F:推 liu724588: 藍繼續2軍吧 10/08 18:57
132F:推 egg43: 潘感覺以為球會傳2壘沒認真跑?? 10/08 18:57
133F:推 Petrovic: 全力跑應該會安打 10/08 18:57
134F:推 RZPTT: 兄弟啦啦隊看來不怎樣應該跟她們服裝造型實在不怎樣有關 10/08 18:57
135F:→ bighdogs: 是否想上美技票選? 10/08 18:57
136F:推 encorej77107: 陳凱倫臂力>咖啡 10/08 18:57
137F:推 ttnakafzcm: PS顏值不錯啊 但是衣服可以改進 10/08 18:58
138F:推 jj1004: 我犀一直打第一球 很想下班XD 10/08 18:59
139F:→ sorrycar: EDA出局如風 10/08 18:59
140F:推 RealWill: 義大怎麼沒有趁機洗數據 10/08 19:01
141F:推 jj1004: 又打第一球XD 10/08 19:02
142F:→ yyc1217: 哼哼 明天到桃園就知道了 10/08 19:03
143F:推 encorej77107: 真4棒 10/08 19:03
144F:→ jj1004: 每球都揮XD 10/08 19:04
145F:→ jj1004: 慢動作好好笑XD 10/08 19:04
146F:→ chenlu0930: 飛天啦~ 10/08 19:04
147F:→ encorej77107: 跳恰恰 10/08 19:04
148F:→ de606430: 隊長趕下班啦 >< 10/08 19:04
149F:推 yyc1217: 犀牛從第一局就在趕下班 10/08 19:04
150F:→ jj1004: 義大一堆球來就打 跟本想下班XD 10/08 19:05
151F:→ encorej77107: 克今天球不是偏高就紅中 義大又不等球的 10/08 19:05
152F:→ f59952: 除非拼獎項 應該都會丟進去為主 10/08 19:07
153F:→ bbo9527: 等等菜逼八上來時給國輝打HR拼40我可以XD 10/08 19:10
154F:推 BOIAN05: 兩局還沒結束快60球了= = 10/08 19:12
155F:→ GoldenWasabi: 覺神! 10/08 19:15
156F:推 pdr666333: 覺神再起 10/08 19:15
157F:推 yyc1217: 練兵模式啟動? 10/08 19:16
158F:→ lostguy: 覺神!!! 10/08 19:16
159F:推 adanielx23: 覺神! 10/08 19:16
160F:推 dsauqt: 22球勒 10/08 19:16
161F:推 StephenLai: 都打第一球 看不出哪隊在練兵 10/08 19:16
162F:→ pdr666333: 接的抖抖 10/08 19:16
163F:推 a12375111: 覺神!!! 10/08 19:17
164F:→ StephenLai: 4球結束一局 還可以再少一點嗎? 10/08 19:17
165F:推 jj1004: 全員趕下班 笑翻XD 10/08 19:17
166F:推 a0912574942: 這半局有一分鐘嗎? 10/08 19:17
167F:→ helba: 回家模式 10/08 19:17
168F:→ sorrycar: 球來就打 出局如風 10/08 19:17
169F:推 dailylily: 三局不到25球 還掉過一分 這甚麼魔術 10/08 19:18
170F:→ sorrycar: 也看不出每個都想尻砲 大概是想早點收工回去 10/08 19:18
171F:→ jimmy8343: 今天要拼最少用球完投嗎? 10/08 19:18
172F:→ StephenLai: 都這樣打克蘭頓完封兩場還不會破百球 10/08 19:19
173F:推 cobras638: @jocabyu 明年義大兄弟將由緯來拍攝與製播 在忍耐一下 10/08 19:19
174F:推 POD0741: 希克表示... 10/08 19:20
175F:推 chen06: 希克已用64球! 10/08 19:20
176F:推 ttnakafzcm: 甩甩自打球.. 10/08 19:23
177F:推 daniel1344: 神全你回來惹 10/08 19:24
178F:推 Petrovic: 主審= = 10/08 19:24
179F:推 jj1004: 冠威的直線傳球勒XD 10/08 19:24
180F:推 ding0214: 沾醬油還傳慢豆XD 10/08 19:24
181F:→ f59952: 神全還是接不到 10/08 19:24
182F:推 StephenLai: 關神全什麼事 daniel神邏輯 10/08 19:25
183F:推 yyc1217: 滑掉了吧 10/08 19:25
184F:推 encorej77107: 這球陽E 可是神全也有責任 10/08 19:25
185F:→ encorej77107: 陽傳球還是多練吧 10/08 19:25
186F:→ encorej77107: 這球正牌普通一壘手都可以輕鬆接到 10/08 19:26
187F:推 a129517496: 這球慢豆說真的沒啥難度 10/08 19:26
188F:推 lostguy: 鏡頭請對壯壯就好 10/08 19:28
189F:推 hhpsjoe: 大胖XDDDDDDD 10/08 19:28
190F:→ lostguy: 琳上了 10/08 19:28
191F:→ Xiong271: 大胖正式轉型了嗎 10/08 19:29
192F:推 OrniG: 今天如果兩邊投手都投到5局,可以破用球數差最多的紀錄嗎? 10/08 19:29
193F:推 coon182: 爪爪說好的練兵呢? 10/08 19:30
194F:推 dsauqt: 31球 10/08 19:30
195F:推 hhpsjoe: 大胖真的越來越幽默了 10/08 19:30
196F:推 lostguy: 趕下班看PS 10/08 19:30
197F:→ actoss: XDDD 10/08 19:30
198F:推 spy9527: 想吃消夜太明顯 10/08 19:31
199F:→ flicker36: 死到有剩 10/08 19:31
200F:推 jkf790207: 大家都在趕下班~ 10/08 19:31
201F:推 pdr666333: 這是自殺吧 10/08 19:31
202F:推 POD0741: ...想家了嗎 10/08 19:31
203F:推 Petrovic: 大頭... 10/08 19:31
204F:推 ttnakafzcm: XDDDDDDDDDDDDDDDDDDDDDDDDD 10/08 19:31
205F:推 YesHi: 死到有剩 10/08 19:31
206F:推 jj1004: 我犀擺明想下班 笑死XD 10/08 19:31
207F:→ lostguy: XDDD自殺跑壘 10/08 19:31
208F:推 a12375111: 怎麼會想跑二壘 也差太多XD 10/08 19:31
209F:→ ttnakafzcm: 4 inning 33NP 10/08 19:31
210F:推 yyc1217: 這太明顯了XDDDDDDDD 10/08 19:31
211F:推 encorej77107: 這跑壘真的很想家 10/08 19:31
212F:→ bbo9527: 等等...待會打完要去餐廳慶祝的不是兄弟嗎...... 10/08 19:31
213F:→ jkf790207: 兩邊的投球數也差太多 10/08 19:32
214F:推 a129517496: 老實說我覺得這球周董傳應該會safe 10/08 19:32
215F:推 dailylily: 打出去發現竟然穿了 只好亂跑拚出局下班XD 10/08 19:32
216F:→ lostguy: 加油 好嗎?(小胖口吻) 10/08 19:32
217F:推 chen06: 今天在練兵的是義大無誤,守備和跑壘都有練到 XD 10/08 19:32
218F:推 FX5900XT: Pollo 10/08 19:32
219F:→ bbo9527: eda是餐廳沒訂位趕著收工去搶位置喔xd... 10/08 19:32
220F:→ ttnakafzcm: 在周記的牛迷表示:我可以退票嗎...(誤 10/08 19:32
221F:→ f59952: 這誰敢跑啦 太扯了 10/08 19:32
222F:推 BOIAN05: 兄弟是有發請帖請牛牛一起去餐廳嗎... 10/08 19:32
223F:噓 hayato24: 海水退了,義大又回復原狀了,才發現,大家都沒穿褲子.... 10/08 19:33
224F:→ f59952: 這那個三壘手好守 幹嘛怪大頭 10/08 19:33
225F:→ ttnakafzcm: 這種距離要衝2B真的要腳程夠快 10/08 19:33
226F:推 yyc1217: 這樣我還寧願看二軍上來練咧 唉 10/08 19:33
227F:推 encorej77107: 林ww跑很快 林王太準 10/08 19:33
228F:推 POD0741: 象:一起吃晚餐ok?犀:no problem! 10/08 19:33
229F:→ bbo9527: 兄弟:eda要一起吃飯嗎 但是我沒訂你們的位喔xd 10/08 19:34
230F:→ jkf790207: 覺神 10/08 19:35
231F:推 FromD: 肥刀染頭髮? 10/08 19:35
232F:→ encorej77107: 陳凱倫怪怪的 守ss居然還沒亂噴球 10/08 19:35
233F:推 ttnakafzcm: 陽冠威E? 10/08 19:35
234F:→ encorej77107: eeeeeeee 10/08 19:36
235F:推 tomashsue: 冠威今天ㄌ有點慘 10/08 19:36
236F:推 jj1004: 冠威今天恢復正常了?..... 10/08 19:36
237F:→ encorej77107: 位置有點尷尬 10/08 19:36
238F:推 yyc1217: [新聞] 克拉帝透露 前犀牛賈西亞來台打12強 10/08 19:36
239F:→ lrh18: 這腳步根本不對 基本動作還是不夠 10/08 19:36
240F:→ tomashsue: 凱倫這個守備漂亮 10/08 19:36
241F:→ jj1004: 陳凱倫>>>>>咖啡 10/08 19:36
242F:→ ttnakafzcm: 33 V.S. 86 這也差太多 10/08 19:36
243F:推 jay1943webbe: 本壘後面那球迷舉 王勝偉 地表最強男 都不會心虛嗎 10/08 19:37
244F:→ ksshen: 緯來球評:兩個彈跳分成很好處理跟不好處理... 10/08 19:37
245F:→ jj1004: 他可能以為是王少偉吧 10/08 19:38
246F:推 chen06: 等等大老闆請吃飯只好打快一點? 10/08 19:39
247F:推 t55020255: 今天打超快 10/08 19:40
248F:推 encorej77107: 今天應該會破史上最少球紀錄 10/08 19:40
249F:推 ding0214: 蔡明覺2B守的真順 10/08 19:41
250F:→ f59952: 限制60球都可以吃八局了 哈哈 10/08 19:41
251F:→ sorrycar: 球來就揮 腦沖進壘  比爪還練兵 10/08 19:42
252F:推 chen06: 義大是人好還是要一起去餐廳吃飯?克大叔5局只用46球 10/08 19:43
253F:→ sorrycar: 不到50球5局 10/08 19:43
254F:推 BOIAN05: 克:咦 休息了嗎 我才剛熱身完欸 10/08 19:44
255F:推 darkagesgaga: 也太少人推文 10/08 19:49
256F:推 chen06: 希克用球數已經97球(五局末結束) 10/08 19:50
257F:→ coon182: 消化試合,這樣已經很好了 10/08 19:50
258F:推 Petrovic: 送分.. 10/08 19:50
259F:推 Nobita: 我蝦 QQ 10/08 19:51
260F:推 darkagesgaga: 無言 10/08 19:51
261F:→ hayato24: 典型的希克送分 10/08 19:51
262F:推 SungHyun: 爆了XDDDDDDDDDDDDDDDDDDDDDDDDDDDDDDDDDDDDDDDDDDDDDDD 10/08 19:51
263F:推 jay1943webbe: 蘇偉在哪裡 10/08 19:51
264F:→ mtwtfss: 中外野手要跑去哪 10/08 19:51
265F:推 Rex3661: 要是釣蝦這球早就~~~~ 10/08 19:51
266F:推 KY1998: 緯達~緯達~緯大力~~~~ 10/08 19:51
267F:→ SungHyun: 爽!!!!!!!!!!!!!!!!!!!!!!!!! 10/08 19:51
268F:推 MuseLand: WOW 10/08 19:51
269F:推 pdr666333: 蘇是你基的學長嗎? 10/08 19:51
270F:推 tim890116: 這隻有點猛耶 10/08 19:52
271F:推 Saza: 蘇漢草不錯 兄弟終於沒在二軍弄一堆腿哥 10/08 19:52
272F:噓 yyc1217: 又讓我想到無良和紅中的嘴臉 生氣 10/08 19:52
273F:→ SungHyun: 正妹我的 10/08 19:52
274F:推 gotowayhome: 跟我基同類型的 10/08 19:52
275F:→ pdr666333: 阿覺H了 10/08 19:52
276F:推 dudeboy: 大胖剛剛說什麼學園 沒聽清楚?? 10/08 19:52
277F:推 JEFF11503: 覺神!!! 10/08 19:52
278F:推 Petrovic: 覺神! 10/08 19:53
279F:→ happiness077: 二軍的逆襲 10/08 19:53
280F:→ WongTakashi: 大胖:偶像學園(誤 10/08 19:53
281F:推 lostguy: 這麼想逛逢甲夜市 10/08 19:53
282F:推 eternal3326: 覺神HHHHHHHHHHH 10/08 19:53
283F:推 feveregg: 兄弟二軍完勝午午一軍 10/08 19:53
284F:推 Goeaturdick: 稀客壞了 10/08 19:53
285F:→ pdr666333: 這陣容竟然打爆希克 10/08 19:53
286F:推 unformat: 可以換投了吧 10/08 19:53
287F:→ SungHyun: 希克好慘 10/08 19:54
288F:→ lostguy: 炸了,考慮換吧 10/08 19:54
289F:→ Petrovic: 打不完了 10/08 19:54
290F:→ MAX777: 爪二軍現在一堆大隻的阿 蔡益民 林明杰 10/08 19:54
291F:推 jay1943webbe: 等一下兄弟應該會練投手了 10/08 19:54
292F:推 ttnakafzcm: 大胖說關西學園? 10/08 19:54
293F:推 chen06: 兄弟的練兵打線,5局10安得6分! 10/08 19:55
294F:推 jocabyu: 1.5軍 6:1 1軍 10/08 19:56
295F:推 pdr666333: Allen524: 中信幾乎等於是整隊都換掉了..XDDD練超大 10/08 19:57
296F:推 yyc1217: 今天打好快 10/08 19:57
297F:→ pdr666333: 大師有開示 10/08 19:57
298F:推 eternalviva: pollo的逆襲 10/08 19:58
299F:→ sorrycar: 看爪會不會提早換 練幾個投手 不然要被1.5軍電爆了 10/08 19:58
300F:→ a09619508: 524果然臭嘴 10/08 20:00
301F:推 jay1943webbe: 練投了 義大機會來了嗎 10/08 20:01
302F:推 qqqqer: 三毛 10/08 20:01
303F:推 Petrovic: 我爪要練到底了 10/08 20:01
304F:→ Petrovic: NP 10/08 20:02
305F:推 a200147: 40轟預備 10/08 20:02
306F:推 a129517496: 40來一發吧 10/08 20:02
307F:→ daniel1344: 林英傑失投應該就會被扛出去 10/08 20:02
308F:推 aska5566: 壞球都能安 10/08 20:04
309F:→ godblesssam: 二軍超猛阿! dpppppp 10/08 20:04
310F:推 Petrovic: DP 10/08 20:04
311F:推 yyc1217: 趕下班DP 10/08 20:05
312F:→ BaRanKa: 葉總這麼果斷換了 10/08 20:06
313F:推 MAX777: 等等爪請吃飯欸 幹嘛安打,快打個DP趕下班 10/08 20:06
314F:推 aa97531aa: 午午好慘啊 快搶狀元啊 10/08 20:11
315F:推 yoyoboy1: 爪爪幾乎板凳+二軍打線了 還可以這麼猛 10/08 20:12
316F:→ yoyoboy1: 一軍都不見得可以打這麼多分了XDDDD 10/08 20:12
317F:推 aska5566: 爪爪為何這麼能打 10/08 20:14
318F:推 luaniu: 二軍打線超猛 10/08 20:15
319F:推 murray: 怎麼覺得爪爪的二軍比一軍還強 XD 10/08 20:15
320F:推 Petrovic: 我林王! 10/08 20:16
321F:推 yyc1217: 早換二軍上來也不用等昨天丟綵帶 10/08 20:16
322F:推 pjharper: 派二軍打冠軍賽吧~ 10/08 20:17
323F:推 tim890116: 二軍養了一堆砲XDDD 10/08 20:17
324F:推 hsuween: 象二軍火力超猛 10/08 20:17
325F:→ loveinmars: 謝謝524:))))) 10/08 20:17
326F:推 leotompp: 這二軍 的下半季冠軍BUFF也太強了吧..... 10/08 20:17
327F:推 straggler7: 其實兄弟要派二軍打季後賽 10/08 20:17
328F:推 hjbe5932: 我爪二軍選手終於不再是一堆腿哥,欣慰 10/08 20:18
329F:推 t55020255: 話說二軍怎會打輸LM XDD 10/08 20:18
330F:推 yoyoboy1: 兄弟: 靠~~!! 原來我板凳超深  10/08 20:18
331F:推 loveinmars: 因為2軍投手實在滿爛的XDDD 10/08 20:19
332F:→ s83106: 兄弟二軍投手很爛 10/08 20:20
333F:推 Petrovic: 磊哥 10/08 20:21
334F:推 lostguy: 三石 10/08 20:21
335F:推 yyc1217: 我要當老師!!!!!!!!!!!! 10/08 20:21
336F:→ bbo9527: 漢典哥? 10/08 20:21
337F:推 a129517496: 瘦板肥刀 10/08 20:22
338F:推 yoyoboy1: 這投手看起來屌屌der 10/08 20:22
339F:推 smallwenwen: 長的有喜感 10/08 20:23
340F:推 yankeessuck: 林俊傑mix漢典 10/08 20:23
341F:推 hhpsjoe: 根本陳漢典 10/08 20:23
342F:→ f59952: s83. ??? 10/08 20:23
343F:推 dudeboy: 1這好球?? 10/08 20:23
344F:噓 encorej77107: 這好球笑死人 10/08 20:23
345F:推 PCC2003: 比前一球好XD 10/08 20:23
346F:推 FromD: 長的有點像林瑟康? 10/08 20:23
347F:→ dudeboy: 有點像沒畫眼線的王羲之 10/08 20:23
348F:推 yyc1217: 好球XDDDD 10/08 20:23
349F:推 godsong: 趕放假好球帶 10/08 20:23
350F:推 Petrovic: 漢典4NI? 10/08 20:24
351F:推 WeAntiTVBS: 炸了 10/08 20:24
352F:→ godsong: hr 10/08 20:24
353F:推 werger: 典哥被炸了 10/08 20:24
354F:→ zacawoo: 10轟! 10/08 20:24
355F:推 daniel1344: 十轟+1 10/08 20:25
356F:→ MAX777: 歡迎加入中華職棒 10/08 20:25
357F:推 jj1004: 震撼教育 10/08 20:25
358F:→ FromD: 被洋砲炸一發 10/08 20:25
359F:噓 hayato24: 不要臉,連主審都趕下班 10/08 20:25
360F:推 StephenLai: 主審硬給1K,冠威看不過去了 10/08 20:25
361F:推 PCC2003: EDA第五位10轟 10/08 20:25
362F:推 yyc1217: 歡迎來到中華職棒 10/08 20:25
363F:推 cht211: welcome to CPBL 10/08 20:25
364F:→ FromD: 那擊球砰超大聲 10/08 20:26
365F:推 rodyguy: 每投一球都要橋帽子... 10/08 20:26
366F:推 dudeboy: 為什麼林旺衛也要拉袖子...... 10/08 20:26
367F:推 JEFF11503: 歡迎加入中華職棒 10/08 20:26
368F:推 jay1943webbe: 義大好好選應該一直上壘吧 這支壞球太多 10/08 20:26
369F:→ godsong: eda 什麼都沒了 裁判還要搞 到底有什麼深仇大恨 10/08 20:26
370F:推 MAX777: 可以抓線內吧 10/08 20:28
371F:推 StephenLai: 義大一向沒裁判緣 不意外 10/08 20:28
372F:推 Petrovic: 這守備.. 10/08 20:28
373F:推 hjbe5932: 蘇直接定格XD 10/08 20:28
374F:推 wayne1019: 99不是飛刀? 10/08 20:28
375F:推 Saza: 主審沒抓 算很幫忙了 10/08 20:28
376F:→ sorrycar: 沒啥控球 午胃口還是很好 10/08 20:28
377F:→ jordan1227: 剛好像有點線內? 10/08 20:28
378F:推 yyc1217: 先打到ww吧 10/08 20:28
379F:推 encorej77107: 周聖訓比陳家駒還會接球 10/08 20:28
380F:→ MAX777: 要是紅中早出來抓跑線內了 10/08 20:29
381F:→ f59952: 鯊魚 ……亂說 是兄弟不想吵 10/08 20:29
382F:→ an123456781: 這妨礙守備了吧 10/08 20:29
383F:推 crusaders811: 鄭幸生根本亂掰 10/08 20:29
384F:推 sendow: 明顯妨礙守備了,鯊魚還在那543 10/08 20:30
385F:推 zacawoo: 鄭幸生這樣也可以當球評== 10/08 20:30
386F:→ MAX777: 就這種殺豬公的,最好跑線內沒事 10/08 20:31
387F:推 BadSalaD: 99怎麼換人@@ 10/08 20:31
388F:推 Petrovic: 義大好捧場 10/08 20:31
389F:→ s83106: 99換很久了 10/08 20:35
390F:→ f59952: 鯊魚加油好嗎 10/08 20:36
391F:推 dudeboy: 這投球姿勢超炫的 10/08 20:40
392F:推 cucu1126: 陽砲守備練習 10/08 20:40
393F:推 hu610346: 陽冠威都慢慢處理滾地球 然後快快傳球XD 10/08 20:41
394F:推 hjbe5932: 大頭怎馬上就死XD 10/08 20:42
395F:→ hu610346: 林益全看到他慢慢處理球的時候應該滿怕的吧XD 10/08 20:42
396F:推 encorej77107: 守備真的有練有差 希望陽季末能繼續練 10/08 20:43
397F:推 daniel1344: 胡老闆搞笑 10/08 20:44
398F:推 encorej77107: 胡這局在幹嘛xd 10/08 20:45
399F:推 trylin: HU感覺季後賽無望了以後完全沒勁 10/08 20:45
400F:→ trylin: 加上上次屠殺自殺,感覺他真的對個人獎一點興趣都沒有 10/08 20:46
401F:推 smallwenwen: 想著高爾夫吧 10/08 20:46
402F:→ encorej77107: 打身體健康的吧 10/08 20:46
403F:推 encorej77107: 邱好殺 10/08 20:48
404F:推 hsuween: KKK 有點猛 10/08 20:49
405F:推 batsakura: KKKKKKKKKKKKKKKKKKKK 10/08 20:49
406F:→ MAX777: 今天開不少好福袋 10/08 20:49
407F:推 gn7722: 看來國輝急了 10/08 20:49
408F:推 Petrovic: 強暴惹 10/08 20:49
409F:→ tim890116: 胡老闆不是想打高爾夫嗎 10/08 20:50
410F:推 ntusimmon: ultratimes: 兄弟有機會創下封王後連敗到最後一場比賽 10/08 20:50
411F:→ ntusimmon: 的紀錄嗎? 10/08 20:50
412F:推 qqstory: 一份就是要扛全壘打 10/08 20:50
413F:推 hayato24: 唉...胡老闆就根本不想刷數據,不然上次就刷永維拉了 10/08 20:51
414F:推 campdkny: 冰淇淋妹今天穿好多 10/08 20:51
415F:推 lostguy: 好肉感,但是我喜翻 10/08 20:51
416F:→ coon182: 看來國輝要回到熟悉的場地破40了 10/08 20:52
417F:推 aa97531aa: 午午繼續輸 還有機會搶狀元嗎 10/08 20:53
418F:→ coon182: 不知道這場有沒有機會兩小時半打完 10/08 20:53
419F:推 tim890116: 喵喵上次狀元魔術數字都歸零了 10/08 20:53
420F:推 lostguy: 鯰魚弟 10/08 20:54
421F:→ Isaac: 大物捕手砲 林明杰!!! 10/08 20:54
422F:推 batsakura: 捻魚弟!! 10/08 20:54
423F:→ oceanman: 好大隻 10/08 20:55
424F:推 encorej77107: 賴怪怪的 全直球 10/08 20:56
425F:→ encorej77107: 難怪不配xdddddddd 10/08 20:57
426F:推 orznge: 林有夠壯 10/08 20:57
427F:推 daniel1344: 傳什麼鬼 10/08 20:58
428F:推 pdr666333: 咖啡的傳球= = 10/08 20:59
429F:推 encorej77107: 神全救了咖啡 10/08 20:59
430F:→ f59952: 太浪漫了吧 咖啡 10/08 20:59
431F:推 jj1004: 是不是陳凱倫好多了.... 10/08 20:59
432F:推 lovetaros: 三個捕手在打線裡 10/08 20:59
433F:推 mark2334567: 幫神全特訓… 10/08 20:59
434F:→ encorej77107: 陽冠威: 神全偏心 10/08 20:59
435F:推 luaniu: 二軍展示火力 10/08 20:59
436F:推 yoyoboy1: 兄弟好強阿~~~!!  不考慮代二軍去打總冠軍? 10/08 21:00
437F:推 batsakura: 前幾天用2軍打會部會提前封王?? 10/08 21:00
438F:推 murray: 林王好猛阿 10/08 21:00
439F:推 lovecut: 打不玩了XDDDD 10/08 21:00
440F:噓 chin78909: 別輸給兄弟二軍好嗎 10/08 21:01
441F:推 orznge: 小葉托腮 10/08 21:01
442F:→ f59952: 鯊魚激動說火哥棒棒 主播打臉是永漢 10/08 21:01
443F:→ f59952: 鯊魚還是 … 10/08 21:01
444F:→ lovecut: 二軍上來觀光 都太興奮了狂H 10/08 21:01
445F:噓 jimgene: 直接噴一發吧 10/08 21:01
446F:→ BaRanKa: 我兄的2軍貨以前都軟趴趴 現在上來怎都比1軍兇 10/08 21:02
447F:推 encorej77107: 爪爪今天滾地很會找洞 10/08 21:02
448F:推 xu3jo6su6: 平偉快被打爆了.. 10/08 21:02
449F:推 dooroqen: 二軍有這麼猛 10/08 21:02
450F:→ jimmy8343: 爪爪二軍先發比一軍替補強 10/08 21:03
451F:推 luaniu: 這是二軍火力 你敢信 10/08 21:03
452F:推 yoyoboy1: 平偉爛爆了 10/08 21:03
453F:推 encorej77107: 應該會換 10/08 21:03
454F:→ encorej77107: 賴今天真的不行 只有飄飄直球 投得好又找洞穿 10/08 21:04
455F:→ tim890116: 聽說平偉現在在一個樂團當主唱了 10/08 21:04
456F:→ BaRanKa: 蘇緯達 不要浪費漢草 來個GS吧 10/08 21:04
457F:推 hank85202: 二軍象難得比賽有轉播每個都卯起來打 10/08 21:05
458F:推 murray: 兄弟二軍打擊太強了 10/08 21:05
459F:推 dudeboy: 而且那個樂團都傳富堡的工作服 超級好笑 10/08 21:06
460F:→ jimmy8343: 又來 10/08 21:06
461F:推 lovecut: 不是自殺的話不知道要打到幾點XDDD 10/08 21:06
462F:推 forfan: 陽炮跑蠻快的 10/08 21:06
463F:→ BaRanKa: 沒有某雲的夜晚真是舒胡 10/08 21:06
464F:推 Saza: 子豪日常 10/08 21:06
465F:推 KY1998: 歡樂跑壘? 10/08 21:06
466F:推 Nobita: 打者記錯出局數吧 10/08 21:06
467F:推 encorej77107: 爪爪跑壘連續搞笑XDDD 10/08 21:06
468F:噓 chin78909: 義大 < 兄弟二軍.....兄弟二軍直接扛第五隊好嗎 10/08 21:06
469F:推 xu3jo6su6: 子豪拯救平偉 10/08 21:06
470F:→ encorej77107: 2出局 1壘那個上二壘跟本逼死前面那一個阿 10/08 21:07
471F:→ CKCDY: 我象二軍火力展示會 10/08 21:08
472F:推 MAX777: 午午之前還幻想挑戰賽,真的進爪派二軍就橫掃了吧 10/08 21:09
473F:→ weykh: 新人感謝祭 10/08 21:10
474F:推 encorej77107: 爪爪這麼強 TS大概也是用2軍就能橫掃了 10/08 21:10
475F:推 yoyoboy1: 義大被爪爪二軍打16支安打了  屌屌der~~~ 10/08 21:12
476F:→ coon182: 4X來了 10/08 21:12
477F:推 lkkwing01: 謝謝524大師 10/08 21:13
478F:推 ysku: LF林王 CF子豪 RF蔣 3B基宏 2B潘 1B蘇 C林 還少SS DH 10/08 21:13
479F:→ BaRanKa: 4X好鳥 = = 10/08 21:18
480F:推 FUNYUN: SS覺神XD? C警察 DH林吧?可以輪流 10/08 21:18
481F:推 batsakura: 4X要上來幫洗數據了 10/08 21:18
482F:→ BaRanKa: 完全不行 = = 10/08 21:19
483F:推 jj1004: 顆顆 陽洗的好開心XD 10/08 21:19
484F:推 xu3jo6su6: 這種局面還能投成這樣 下去領81000吧 10/08 21:19
485F:推 dsauqt: 完全不能用 10/08 21:19
486F:推 davidwin17: 4X不EY 10/08 21:19
487F:→ encorej77107: 真3壘砲阿 10/08 21:19
488F:推 lovetaros: 4X… 10/08 21:19
489F:→ batsakura: 4X根本GG 午午快洗阿 10/08 21:20
490F:推 ORK: 耿肥可以丟了,省一些錢 10/08 21:20
491F:→ dsauqt: 下去2軍領5萬吧 10/08 21:20
492F:推 etop: 4X 年底會被釋出嗎 10/08 21:20
493F:噓 jimgene: 現在主審就投手嗎,又開外角海 10/08 21:20
494F:推 tony123839: 陽冠威真的養出來囉~ 當初酸不選蔣的那群哩 10/08 21:20
495F:→ daniel1344: 主審想下班了 10/08 21:20
496F:推 TAKEZOU: 這球好球? 10/08 21:20
497F:→ davidwin17: ...太海了 10/08 21:20
498F:→ encorej77107: XXXXXXXXXXXXXXXXXXXXXXXXXXXXXXx 10/08 21:20
499F:→ encorej77107: 這顆是今年年度紀錄吧 10/08 21:20
500F:→ leo0916: 難看...拖檯錢 10/08 21:20
501F:噓 tetsu0401: 主審趕著去逛夜市 10/08 21:20
502F:推 jay1943webbe: 不會大逆轉吧 10/08 21:20
503F:推 waterpoise: 主審萱放連假了嗎 剛剛那球也太外角 10/08 21:21
504F:噓 yyc1217: 主審趕下班 10/08 21:21
505F:→ encorej77107: 一頭出去整顆都在外面2~3顆還可以舉好球 10/08 21:21
506F:→ BaRanKa: 這個鳥4X 一直控不進去 10/08 21:21
507F:→ wh0386: 4XXZXxCCZXXX 10/08 21:21
508F:→ BaRanKa: 趕快換下去好嗎 = = 爛尾 10/08 21:21
509F:→ coon182: 要被丟了,4X掰 10/08 21:21
510F:推 yoyoboy1: 4X今年大概就掰掰走人了  爛透了 10/08 21:22
511F:→ TAKEZOU: 4X真的欠 X 10/08 21:22
512F:推 ORK: 梗肥,增松,左鄭,兄弟三大王牌 10/08 21:22
513F:推 jack7785: 給三棒打! 10/08 21:22
514F:→ leo0916: 換下去啦... 10/08 21:22
515F:推 chinfong: 耿胖軒有夠爛的,我不懂為什麼兄弟還一直把他留在一軍 10/08 21:22
516F:推 a1len: 咦??不是要做球給高國輝嗎XDDDD 10/08 21:22
517F:→ banbantone: 約砲謙上了 10/08 21:23
518F:→ TAKEZOU: 剛剛第二球是今年我看過最誇張的好球 10/08 21:23
519F:推 dsauqt: 連直球都不敢投 10/08 21:23
520F:→ MAX777: 4X二軍還能用啦 10/08 21:23
521F:推 littlething: 剛那顆好球太誇張,必須譴責 10/08 21:24
522F:推 jack7785: 球給國輝! 10/08 21:24
523F:→ Nobita: 超自殺棒也安打 10/08 21:24
524F:推 jay1943webbe: 大逆轉就扯了喔 10/08 21:24
525F:→ forfan: 很好,不要DP就行 10/08 21:24
526F:推 danwhei: 40轟的嗆斯 10/08 21:25
527F:推 yoyoboy1: 兄弟要被逆轉了 笑死  不過沒差 消化試合而已 10/08 21:25
528F:推 thirdblue: 想看國輝40轟阿 10/08 21:25
529F:推 MAX777: 想看40轟 10/08 21:25
530F:→ BaRanKa: 不要打到被逆吧 2軍看來只有打者狀況內 10/08 21:25
531F:推 jj1004: 拜託打到高國輝! 10/08 21:25
532F:推 ORK: 給耿去二軍,還佔位子咧 10/08 21:25
533F:→ Nobita: 再一個上壘就能看到桃園王 10/08 21:25
534F:推 a1len: 拜託做球給高國輝!!! 10/08 21:25
535F:推 ultratimes: \逆轉勝/\逆轉勝/\逆轉勝/\逆轉勝/\逆轉勝/\逆轉勝/ 10/08 21:26
536F:→ forfan: 很好!不要揮! 10/08 21:26
537F:推 lucy07030703: 很好,好好選 10/08 21:26
538F:→ forfan: 千萬不要呆呆的揮棒 10/08 21:27
539F:→ jack7785: 要輝不要揮 10/08 21:27
540F:推 ORK: 吳復連的臉色超難看 10/08 21:27
541F:→ jimgene: 來個GS 10/08 21:27
542F:→ lucy07030703: 水拉~~~~保送拉 10/08 21:27
543F:→ forfan: 沒錯!不要揮就上壘了 10/08 21:27
544F:推 chocobo4235: 好慘........都不能用了 10/08 21:27
545F:推 Nobita: ok了 沒雙殺就能看到挑戰40順道收拾比賽了 10/08 21:27
546F:噓 KY1998: 耿肥可不可以釋出~ 10/08 21:27
547F:→ BaRanKa: 土投真的很多爛透了 今天還要用到官 下西下井 10/08 21:27
548F:→ coon182: 40轟出來就滿足了 10/08 21:27
549F:推 yoyoboy1: 官大元熱身  我快笑死啦 哈哈哈哈哈 10/08 21:28
550F:推 wh0386: 如果國輝4O轟樓下200p 10/08 21:28
551F:→ leo0916: 換投手換投手 10/08 21:28
552F:→ spy9527: 這些都是年底要丟掉的 10/08 21:28
553F:→ forfan: 我要看高滿貫40轟 10/08 21:28
554F:推 thirdblue: \給我國輝/\給我國輝/\給我國輝/ 10/08 21:28
555F:推 jj1004: 差八分打到要用官大元就好笑了XD 10/08 21:28
556F:→ KY1998: 小葉都笑了 10/08 21:28
557F:→ ORK: 兄弟土投沒有一個能投的,還想打TS 10/08 21:28
558F:推 lostguy: 打到官大元上就賺到了 10/08 21:28
559F:推 binzip: \我輝40轟/ 10/08 21:28
560F:→ coon182: 復點大概心裡想著年底要丟哪幾個 10/08 21:28
561F:推 kuoiann: DP味濃 10/08 21:29
562F:→ binzip: dp就好笑了 10/08 21:29
563F:推 ultratimes: 讓兄弟投手在總冠軍多消耗點犀牛就達到任務了 10/08 21:29
564F:推 a1len: \50轟!!/ 10/08 21:29
565F:推 SuperSg: 打開電視我還以為是昨天的重播哩 10/08 21:29
566F:→ johnny1972: 如果可以50轟也不錯..... 10/08 21:29
567F:→ forfan: 阿浪50轟吧 10/08 21:29
568F:推 yoyoboy1: 幹嘛叫官熱身阿 就算被打到爆  兄弟也沒差阿 10/08 21:29
569F:→ BaRanKa: 一堆土投今年都投1場好 然後炸5場 10/08 21:29
570F:→ yoyoboy1: 反正這些爛土投年底都要丟了 10/08 21:30
571F:推 POD0741: 後面三個在學主審XD 10/08 21:30
572F:推 wasata: 阿讓滿貫轟 樓下五位各200P 10/08 21:30
573F:→ yesno41: 太低了吧 10/08 21:30
574F:→ forfan: 算了,50轟太遠,K掉好啦XD 10/08 21:30
575F:推 PCC2003: 好 10/08 21:30
576F:→ lucy07030703: 主審是想下班了嗎!=_= 10/08 21:30
577F:→ johnny1972: 好 10/08 21:30
578F:→ daniel1344: 國家級投教一天不秀下限渾身不舒服 10/08 21:30
579F:→ mjwang3: 好 10/08 21:30
580F:→ coon182: 復點真浪費,都進總冠軍了放掉哪有差 10/08 21:30
581F:推 thirdblue: 阿浪加油阿 10/08 21:30
582F:推 Sheng98: 後面好搶戲 10/08 21:30
583F:推 encorej77107: 低於膝蓋... 10/08 21:30
584F:推 z19890506: 後面那三個是怎樣 10/08 21:31
585F:→ a1len: 這麼低好球= = 10/08 21:31
586F:推 TAKEZOU: 好 10/08 21:31
587F:→ yyc1217: 想下班的主審最可怕惹 10/08 21:31
588F:推 kings1988: .......... 10/08 21:31
589F:推 tetsu0401: 本後的爪迷XD 10/08 21:31
590F:→ encorej77107: 好險這球沒舉了 周超會拉球 主審都買單 10/08 21:31
591F:→ lucy07030703: 哈哈哈安打拉 10/08 21:31
592F:→ forfan: 水水水 10/08 21:31
593F:推 hayato24: 挖,爪爪好厲害的二軍,不是很屁嗎 10/08 21:31
594F:→ thirdblue: 阿浪好神 10/08 21:31
595F:推 pdr666333: 追平分要來囉 10/08 21:31
596F:推 jimgene: 某人又要英雄命了 10/08 21:31
597F:推 murray: 倒地了 10/08 21:31
598F:→ tetsu0401: 啊!? 10/08 21:31
599F:→ z19890506: 那三個超礙眼的... 10/08 21:32
600F:→ PCC2003: 消化試合搞到出現傷兵... 10/08 21:32
601F:推 MAX777: 40轟40轟 10/08 21:32
602F:推 binzip: 子豪小弟抽筋? 10/08 21:32
603F:推 jj1004: 賠了夫人又折兵 練兵練成這樣...... 10/08 21:32
604F:→ loveinmars: 好可憐... 10/08 21:32
605F:→ a1len: ............還受傷 10/08 21:32
606F:推 twoquarters: 打到高國輝上來 爪爪就危險了~~~ 10/08 21:32
607F:推 carhow: 義大犀牛 強攻!強攻! 10/08 21:32
608F:→ fgddm7: 腿............. 躺在地上 10/08 21:32
609F:→ yyc1217: 都要打TS了還搞成這樣~"~ 10/08 21:32
610F:→ lucy07030703: 抽筋??? 10/08 21:32
611F:→ tetsu0401: 呃.... 10/08 21:32
612F:推 kuoiann: 看似拉傷 10/08 21:32
613F:→ pdr666333: 應該不只是抽筋 10/08 21:33
614F:推 Nobita: 擔架耶 10/08 21:33
615F:推 HHJY: 受傷了QQ 10/08 21:33
616F:推 coon182: 強攻!!強攻!! 還是沒有TS跟狀元 10/08 21:33
617F:→ fgddm7: 抬出場了 10/08 21:33
618F:推 h88488848: 讓很大....這兩位丟10分都不意外 10/08 21:33
619F:→ lucy07030703: 拉傷了嗎?希望沒事@@ 10/08 21:33
620F:噓 ORK: 傳球傳到要擔架? 10/08 21:33
621F:→ tetsu0401: 抽筋不必用到單架吧 10/08 21:33
622F:推 bibyy: 一堆鳥投搞了一個打者 10/08 21:33
623F:→ mussina001: 摳連得土投,沒戰績壓力的比賽投成這樣 10/08 21:33
624F:推 woker77: 過著? 10/08 21:33
625F:→ kuoiann: 抽筋不至於站不起來 10/08 21:33
626F:推 a12375111: 打消化試合打成這樣... 10/08 21:33
627F:推 jay1943webbe: 照這樣看劇本應該起碼會至少給義大9分 做洞 10/08 21:33
628F:→ a1len: 被50轟的內力震到了齁 10/08 21:33
629F:推 evo2100: 隔壁大師兄也倒了... 10/08 21:33
630F:→ fgddm7: 主場優勢.........球場自己養的? 10/08 21:33
631F:推 forfan: 傳個球傳到傷兵 10/08 21:33
632F:→ mussina001: 趕快釋出別占缺了,尤其是耿胖 10/08 21:34
633F:推 aceliang: .......不會是ACL吧 10/08 21:34
634F:推 encorej77107: 抽筋不用擔架吧= = 10/08 21:34
635F:推 TAKEZOU: 用擔架拐氣真的虧大了 10/08 21:34
636F:→ Nobita: 抽筋應該是扶下場 10/08 21:34
637F:噓 KY1998: 左腳抖了一下 10/08 21:34
638F:→ a1len: 統一在觀念中了5:5 10/08 21:34
639F:→ JoneNan: 某樓水準真的有夠差 10/08 21:34
640F:推 orznge: 保重啊 10/08 21:34
641F:推 SungHyun: 左腳是不是有拐到 10/08 21:34
642F:→ MAX777: 剛剛要撲不撲之間去拉到了吧 10/08 21:34
643F:推 jkf790207: = = 感覺很嚴重捏 10/08 21:34
644F:→ SungHyun: 左腳踝那邊 10/08 21:34
645F:推 murray: 擔架抬出去了... 10/08 21:34
646F:→ encorej77107: 完全看不出來哪理有問題阿 都很順 10/08 21:34
647F:→ a1len: 傳完球馬上就倒地 10/08 21:35
648F:→ forfan: 換投? 10/08 21:35
649F:推 f9968106: ??????????????? 10/08 21:35
650F:推 allenlee6710: 扭到膝蓋? 10/08 21:35
651F:推 yyc1217: 人好多 10/08 21:35
652F:→ a12375111: 抬下場了...到底是? 10/08 21:35
653F:→ a1len: 拐氣.... 10/08 21:35
654F:→ orznge: 怎麼兩邊都有事 10/08 21:35
655F:噓 xu3jo6su6: 林克謙也可以打包了 投成這樣 10/08 21:35
656F:推 dsauqt: 這些土投年底砍一坎 10/08 21:35
657F:推 jj1004: 我犀一整場都趕下班 結果派一個上來塞壘包..... 10/08 21:35
658F:→ forfan: 千萬不要拐到我輝40轟的氣 10/08 21:36
659F:推 spy9527: 放一堆廢投上場投球搞到自己人也是蠻強的 10/08 21:36
660F:→ leo0916: 練到兵練到受傷有比較好嗎 10/08 21:36
661F:→ BaRanKa: 丟臉...用到勝利組上來 10/08 21:36
662F:推 TAKEZOU: 踩道坑洞吧 10/08 21:36
663F:推 ORK: 一堆廢X 10/08 21:36
664F:噓 yoyoboy1: 白吃嗎  換官幹嘛  就算被打爆40分也沒差吧 10/08 21:36
665F:推 MAX777: 這種比賽輸會怎樣啦 別那麼操好嗎 10/08 21:36
666F:推 twoquarters: 居然用到官大元了XDD 10/08 21:36
667F:→ BaRanKa: 我恰上來守右外了 ..... 10/08 21:36
668F:推 pdr666333: 好久不見右外野恰恰 10/08 21:36
669F:推 secure69: ...... 10/08 21:36
670F:推 EETLcat: 恰恰RF!!!! 10/08 21:36
671F:→ sorrycar: 花到官都上了XD 10/08 21:36
672F:噓 jimgene: 恰恰都久沒守外野了 10/08 21:36
673F:推 h88488848: 可以丟一丟了 好心撿 投成這樣 Orz 10/08 21:36
674F:推 StephenLai: 恰恰很久沒守外野了 10/08 21:36
675F:→ encorej77107: 消化比賽 上官大元XDDDDDDDDDDDD 10/08 21:36
676F:推 murray: 消化試合打到恰恰出來守外野 XDDDD 10/08 21:36
677F:→ forfan: 很好,知道要打那邊了 10/08 21:36
678F:推 PCC2003: 恰去RF 10/08 21:37
679F:推 andyboy960: 04紫卡恰來啦~ 10/08 21:37
680F:推 JEFF11503: 恰恰...... 10/08 21:37
681F:推 adsl50208: 恰右外XDD 10/08 21:37
682F:推 ttnakafzcm: 我洽RF........ 10/08 21:37
683F:→ jj1004: 恰恰還要上來守外野XDDD 練兵練到我笑了 10/08 21:37
684F:推 danwhei: 恰恰? 要快跑了 10/08 21:37
685F:→ coon182: 恰恰好久沒外野了 10/08 21:37
686F:推 sshwann: 04紫恰RF 10/08 21:37
687F:推 lostguy: 久違的恰恰RF! 10/08 21:37
688F:推 etop: 打給肥恰運動一下 10/08 21:37
689F:→ sorrycar: 往外也打就對了 10/08 21:37
690F:噓 fgddm7: 沒外野了 10/08 21:37
691F:→ MAX777: 雙守紫恰 10/08 21:37
692F:→ forfan: 好球?趕下班 10/08 21:37
693F:推 allenlee6710: 消化比賽弄成這樣... 10/08 21:37
694F:噓 larenz86: 這顆好球? 10/08 21:37
695F:→ EETLcat: 可怕恰恰來啦 10/08 21:37
696F:→ jj1004: 主審腿痠了 10/08 21:38
697F:→ ericpitt: 這好球@@? 10/08 21:38
698F:→ encorej77107: 又來超外角海Zzzzzzzzzzzzzzzzzzzzzzz 10/08 21:38
699F:噓 littlething: 可怕的主審來了 10/08 21:38
700F:→ ericpitt: 沒一顆好球 等級差太多了 10/08 21:38
701F:噓 jimgene: 幾乎都壞球,胃口真好 10/08 21:38
702F:噓 yoyoboy1: 小飛刀藥不要也順便上來阿  白癡點總 輸了會怎樣嗎? 10/08 21:38
703F:推 tetsu0401: 亂揮 10/08 21:38
704F:→ forfan: 被主審吃了一顆,不過沒關係,我輝上場! 10/08 21:38
705F:→ MAX777: 派大元贏了也不會開心好嗎? 10/08 21:38
706F:噓 StephenLai: 主審太蝦 10/08 21:39
707F:推 pdr666333: 40轟 追平分準備!!!!!!!!!!!!!!!!!!!!!!!!!!!!!!!!!!!! 10/08 21:39
708F:→ coon182: 肥刀都下去二軍了怎麼上來 10/08 21:39
709F:推 twoquarters: 跪求一棒追平!!! 10/08 21:39
710F:→ BaRanKa: 想打久一點是吧 國輝你來吧 來一下 10/08 21:39
711F:推 etop: 高HR 樓下500P 10/08 21:39
712F:推 a12375111: 國輝來了 10/08 21:39
713F:→ jimgene: 肥刀在2軍,上不來 10/08 21:39
714F:推 linisthebest: 預備 10/08 21:39
715F:推 thirdblue: 40轟40轟40轟 10/08 21:39
716F:→ wh0386: 國輝 10/08 21:39
717F:推 batsakura: 先猜輝輝再見DP 10/08 21:39
718F:→ calvinh: 4040404040 10/08 21:39
719F:→ wplinwp: 本壘後的球迷有點礙眼 10/08 21:39
720F:→ MAX777: 來個40轟天罰戰神啦 10/08 21:39
721F:推 perhdball: 拜託40轟 10/08 21:39
722F:→ forfan: 喔,有甜到 10/08 21:39
723F:推 wasata: 國輝開轟 樓下五位各200P 10/08 21:39
724F:推 nick2142002: 高HR樓下280p 10/08 21:39
725F:→ a12375111: 好 10/08 21:39
726F:噓 woody31317: 主審趕下班好球帶 對原本選球就不好的還能要求什麼 10/08 21:39
727F:→ linisthebest: 好 10/08 21:39
728F:→ perhdball: 好 10/08 21:39
729F:推 j31003: 推 10/08 21:39
730F:→ lucy07030703: 40 10/08 21:39
731F:推 mjwang3: 轟吧 10/08 21:39
732F:推 TAKEZOU: HR樓下送我100P 10/08 21:40
733F:→ wh0386: 轟吧轟吧 10/08 21:40
734F:→ yoyoboy1: 就讓林克謙爆的徹底有差嗎? 反正年底都要丟了 10/08 21:40
735F:推 z19890506: 40 10/08 21:40
736F:推 encorej77107: K味濃 10/08 21:40
737F:→ forfan: H也行啦留些小菜給神全 10/08 21:40
738F:→ z19890506: 三個.. 10/08 21:40
739F:→ BaRanKa: 2個投手上來搞不下半個人 官上來就先鎖一個 10/08 21:40
740F:→ wh0386: Nice 選! 10/08 21:41
741F:推 MAX777: 40轟 40轟 40轟 10/08 21:41
742F:→ forfan: 兩好後就沒甜球了 10/08 21:41
743F:推 linisthebest: -----------------炸------------------------ 10/08 21:41
744F:→ wh0386: 賣的 10/08 21:41
745F:推 smallwenwen: 後面幾個爪迷很搶戲 10/08 21:41
746F:推 WongTakashi: GG 10/08 21:41
747F:推 EETLcat: 沖天炮~~ 10/08 21:41
748F:→ coon182: 輝輝明天請早 10/08 21:42
749F:推 ericpitt: 沒接到也出局了啦.. 10/08 21:42
750F:→ wh0386: 馬的 10/08 21:42
751F:→ BaRanKa: 喂......這種必死球接這麼險幹嘛 10/08 21:42
752F:→ MAX777: 高飛必死 10/08 21:42
753F:噓 KY1998: 接這麼抖? 10/08 21:42
754F:推 encorej77107: 這守備有點爛 10/08 21:42
755F:→ wh0386: 三井泉! 10/08 21:42
756F:→ forfan: 神全:這次有小菜了 10/08 21:42
757F:推 wasata: 神全開轟 樓下五位各200P 神全加油!! 10/08 21:42
758F:推 pdr666333: 神全還是有追分HR的機會 10/08 21:42
759F:→ encorej77107: 神全搶打點王阿 10/08 21:42
760F:推 sharkhead: 全仔炸裂樓下十樓200P 10/08 21:43
761F:推 perhdball: 好 10/08 21:43
762F:→ mingodu: 別啊 10/08 21:43
763F:推 nanwa: 推 10/08 21:43
764F:推 TAKEZOU: 賺打點靠自己了 2顆滷蛋機會 10/08 21:43
765F:推 psku: @@ 10/08 21:43
766F:→ Xiong271: 大胖又開始了XDDDDD 10/08 21:43
767F:推 dudeboy: 大胖一直在唬爛 10/08 21:43
768F:→ sorrycar: K味濃 10/08 21:43
769F:推 mjwang3: 打點王 10/08 21:43
770F:推 allenlee6710: go 10/08 21:43
771F:→ EETLcat: 過半 10/08 21:43
772F:推 l3086: 賺一下打點 10/08 21:43
773F:→ wh0386: No 10/08 21:43
774F:→ forfan: 好 10/08 21:43
775F:→ leo0916: k味濃 10/08 21:43
776F:→ TAKEZOU: 好 10/08 21:43
777F:推 thirdblue: 神全快把打點吃掉阿 10/08 21:43
778F:推 ericpitt: 安打就好 一拳把握一下 10/08 21:43
779F:→ wh0386: 轟出去樓下100P 10/08 21:43
780F:推 pjharper: 我官威武~ 10/08 21:44
781F:噓 ORK: 後面那三隻,感覺有點欠揍 10/08 21:44
782F:→ encorej77107: 大元殺成這樣不進12強 真的很扯 10/08 21:44
783F:→ EETLcat: 好 10/08 21:44
784F:→ forfan: 喔,揮棒忽然加速 10/08 21:44
785F:→ dudeboy: 還有一隻爪妹 10/08 21:44
786F:推 yoyoboy1: 官大元跟前面兩隻跟本1A與mlb的等級 10/08 21:44
787F:推 tony123839: 指叉球好猛.......但直球球速有點慢就是了 10/08 21:44
788F:→ BaRanKa: 不進最好 季後讓他完整休息 10/08 21:44
789F:推 danwhei: 大刀? 10/08 21:44
790F:→ wh0386: 蠶豆!! 10/08 21:44
791F:→ wh0386: 轟出去再給樓下100P 10/08 21:45
792F:→ forfan: 高: 小菜給你了還不吃 10/08 21:45
793F:推 perhdball: 好 10/08 21:45
794F:推 MAX777: 結果消化比賽還賺到救援點zzz 10/08 21:45
795F:→ wh0386: QQ 10/08 21:45
796F:→ EETLcat: GG 10/08 21:45
797F:推 WongTakashi: GG 10/08 21:45
798F:噓 coon182: 難看 10/08 21:45
799F:推 chocobo4235: 差真多.......官大元輕鬆解決三個 10/08 21:45
800F:→ coon182: 兩個土投八分領先可以搞到有救援點 10/08 21:45
801F:→ BaRanKa: 讓他上場收尾就是真的投手太差 10/08 21:45
802F:推 danielpowter: 根本都沒有好球,想要打點想到失準頭 10/08 21:45
803F:→ chocobo4235: 前兩隻連一個都解決不了是怎樣... 10/08 21:46
804F:→ MAX777: 派大元 贏了一點也不開心 10/08 21:46
805F:推 batsakura: 等級差真多 10/08 21:46
806F:推 pdr666333: 差真多 把中心棒次都KO了 10/08 21:46
807F:推 encorej77107: 你爪大虧 消化比賽還燒大元+傷兵 10/08 21:46
808F:推 leo0916: fire前兩個,幫官大元加薪啦 10/08 21:46
809F:推 sawkuanwoo: 官:我居然沒進P12 10/08 21:46
810F:推 yyc1217: 還是希望子豪弟弟沒事啦 10/08 21:47
811F:推 ericpitt: 陳沒差吧 張回來了 還有郭 10/08 21:47
812F:推 POD0741: 虧爆啦 10/08 21:47
813F:推 danwhei: 蘇偉蘇偉在哪裡 10/08 21:47
814F:推 yoyoboy1: 陳子豪 冠軍賽也不一定能上場阿 10/08 21:47
815F:推 MAX777: 前面那兩隻的薪水明年給大元吧 10/08 21:47
816F:推 mussina001: 不好吧~留點錢以後賣麵開店用 10/08 21:48
817F:→ yoyoboy1: 外野有思齊 威助 花花 志豪 不太缺子豪.... 10/08 21:48
818F:→ BaRanKa: 子豪不必打沒差 有我琳跟建魚 10/08 21:48
819F:推 dsauqt: 前面2個廢投年底坎ㄧ坎 10/08 21:48
820F:→ BaRanKa: 只是4X跟KOKO真的是投的亂七八糟 10/08 21:49
821F:推 f59952: 子豪至少有臂力 10/08 21:59
822F:推 aa97531aa: 午午。唉 10/08 22:00
823F:→ jimgene: 子豪有臂力? 我們是看同一個人嗎? 10/08 22:00
824F:推 chiaamay: 子豪TS定位應該是第4號外野手 第2號代打手 .. 10/08 22:05
825F:推 aska5566: 這場爪其實也輸不得 氣勢 10/08 22:17
826F:→ knml: 沒揮@@ 10/08 22:21
827F:→ sinohara: 子豪對LM常判斷錯誤E 10/08 22:29
828F:推 alwang: 陳子豪最糟的就是臂力了 OF居然用3/4投法傳球... 10/08 22:42







like.gif 您可能會有興趣的文章
icon.png[問題/行為] 貓晚上進房間會不會有憋尿問題
icon.pngRe: [閒聊] 選了錯誤的女孩成為魔法少女 XDDDDDDDDDD
icon.png[正妹] 瑞典 一張
icon.png[心得] EMS高領長版毛衣.墨小樓MC1002
icon.png[分享] 丹龍隔熱紙GE55+33+22
icon.png[問題] 清洗洗衣機
icon.png[尋物] 窗台下的空間
icon.png[閒聊] 双極の女神1 木魔爵
icon.png[售車] 新竹 1997 march 1297cc 白色 四門
icon.png[討論] 能從照片感受到攝影者心情嗎
icon.png[狂賀] 賀賀賀賀 賀!島村卯月!總選舉NO.1
icon.png[難過] 羨慕白皮膚的女生
icon.png閱讀文章
icon.png[黑特]
icon.png[問題] SBK S1安裝於安全帽位置
icon.png[分享] 舊woo100絕版開箱!!
icon.pngRe: [無言] 關於小包衛生紙
icon.png[開箱] E5-2683V3 RX480Strix 快睿C1 簡單測試
icon.png[心得] 蒼の海賊龍 地獄 執行者16PT
icon.png[售車] 1999年Virage iO 1.8EXi
icon.png[心得] 挑戰33 LV10 獅子座pt solo
icon.png[閒聊] 手把手教你不被桶之新手主購教學
icon.png[分享] Civic Type R 量產版官方照無預警流出
icon.png[售車] Golf 4 2.0 銀色 自排
icon.png[出售] Graco提籃汽座(有底座)2000元誠可議
icon.png[問題] 請問補牙材質掉了還能再補嗎?(台中半年內
icon.png[問題] 44th 單曲 生寫竟然都給重複的啊啊!
icon.png[心得] 華南紅卡/icash 核卡
icon.png[問題] 拔牙矯正這樣正常嗎
icon.png[贈送] 老莫高業 初業 102年版
icon.png[情報] 三大行動支付 本季掀戰火
icon.png[寶寶] 博客來Amos水蠟筆5/1特價五折
icon.pngRe: [心得] 新鮮人一些面試分享
icon.png[心得] 蒼の海賊龍 地獄 麒麟25PT
icon.pngRe: [閒聊] (君の名は。雷慎入) 君名二創漫畫翻譯
icon.pngRe: [閒聊] OGN中場影片:失蹤人口局 (英文字幕)
icon.png[問題] 台灣大哥大4G訊號差
icon.png[出售] [全國]全新千尋侘草LED燈, 水草

請輸入看板名稱,例如:Tech_Job站內搜尋

TOP